Weather History for KPQL - October, 2013

Change the Weather History Date:

Sunday, October 20, 2013

  Actual Average Record
Temperature  
Mean Temperature 63 °F -  
Max Temperature 75 °F 76 °F 89 °F (1963)
Min Temperature 53 °F 55 °F 33 °F (1989)
Degree Days  
Heating Degree Days 2    
Growing Degree Days 13 (Base 50)    
Moisture  
Dew Point 56 °F    
Average Humidity 84    
Maximum Humidity 100    
Minimum Humidity 53    
Precipitation  
Precipitation 0.00 in - - ()
Sea Level Pressure  
Sea Level Pressure 30.03 in    
Wind  
Wind Speed 4 mph (North)    
Max Wind Speed 9 mph    
Max Gust Speed -    
Visibility 10 miles    
Events      
Averages and records for this station are not official NWS values.
T = Trace of Precipitation, MM = Missing Value Source: NWS Daily Summary

Daily Weather History Graph

Daily Weather History Graph

Search for Another Location

Airport or City:

Trip Planner

Search our weather history database for the weather conditions in past years. The results will help you decide how hot, cold, wet, or windy it might be!

Date:

Astronomy

Oct. 20, 2013 Rise Set
Actual Time 6:59 AM CDT 6:17 PM CDT
Civil Twilight 6:35 AM CDT 6:41 PM CDT
Nautical Twilight 6:07 AM CDT 7:09 PM CDT
Astronomical Twilight 5:39 AM CDT 7:37 PM CDT
Moon 7:33 PM CDT (10/20) 8:30 AM CDT (10/20)
Length of Visible Light 12h 06m
Length of Day
11h 17m
Full, 97% of the Moon is Illuminated
Oct 20
Full
Oct 26
Last Quarter
Nov 3
New
Nov 9
First Quarter
Nov 17
Full

Hourly Weather History & Observations

Time (CDT) Temp. Dew Point Humidity Pressure Visibility Wind Dir Wind Speed Gust Speed Precip Events Conditions
12:53 AM 55.9 °F 55.9 °F 100% 30.01 in 9.0 mi Calm Calm - N/A   Clear
1:53 AM 57.9 °F 57.0 °F 97% 30.01 in 10.0 mi NNW 4.6 mph - N/A   Clear
2:53 AM 57.9 °F 57.0 °F 97% 30.01 in 10.0 mi North 9.2 mph - N/A   Clear
3:53 AM 57.0 °F 55.9 °F 96% 30.01 in 10.0 mi North 6.9 mph - N/A   Clear
4:53 AM 55.9 °F 55.0 °F 97% 30.01 in 10.0 mi North 9.2 mph - N/A   Clear
5:53 AM 55.0 °F 54.0 °F 96% 30.03 in 10.0 mi North 6.9 mph - N/A   Clear
6:16 AM 53.6 °F 53.6 °F 100% 30.03 in 10.0 mi North 5.8 mph - N/A   Partly Cloudy
6:53 AM 54.0 °F 53.1 °F 97% 30.04 in 10.0 mi North 5.8 mph - N/A   Clear
7:53 AM 55.0 °F 54.0 °F 96% 30.05 in 10.0 mi North 8.1 mph - N/A   Clear
8:53 AM 59.0 °F 55.0 °F 87% 30.06 in 10.0 mi North 9.2 mph - N/A   Clear
9:53 AM 62.1 °F 55.0 °F 78% 30.07 in 10.0 mi NNE 9.2 mph - N/A   Clear
10:53 AM 66.9 °F 57.0 °F 70% 30.07 in 10.0 mi North 5.8 mph - N/A   Clear
11:53 AM 72.0 °F 57.0 °F 59% 30.06 in 10.0 mi North 5.8 mph - N/A   Clear
12:53 PM 73.0 °F 55.9 °F 55% 30.04 in 10.0 mi Variable 6.9 mph - N/A   Clear
1:53 PM 73.0 °F 57.0 °F 57% 30.01 in 10.0 mi Calm Calm - N/A   Clear
2:53 PM 73.0 °F 55.9 °F 55% 30.00 in 10.0 mi NW 3.5 mph - N/A   Partly Cloudy
3:53 PM 73.0 °F 55.0 °F 53% 29.99 in 10.0 mi ENE 4.6 mph - N/A   Scattered Clouds
4:53 PM 73.0 °F 55.0 °F 53% 29.99 in 10.0 mi Variable 4.6 mph - N/A   Scattered Clouds
5:53 PM 68.0 °F 57.9 °F 70% 30.00 in 10.0 mi Calm Calm - N/A   Clear
6:53 PM 61.0 °F 59.0 °F 93% 30.00 in 10.0 mi Calm Calm - N/A   Clear
7:53 PM 59.0 °F 57.9 °F 96% 30.02 in 10.0 mi Calm Calm - N/A   Clear
8:53 PM 59.0 °F 57.9 °F 96% 30.02 in 10.0 mi Calm Calm - N/A   Clear
9:53 PM 57.9 °F 57.0 °F 97% 30.03 in 8.0 mi Calm Calm - N/A   Clear
10:53 PM 57.9 °F 57.0 °F 97% 30.04 in 9.0 mi Calm Calm - N/A   Clear
11:53 PM 57.9 °F 57.0 °F 97% 30.03 in 10.0 mi Calm Calm - N/A   Clear